Lufkin, TX

6:31 PM CDT on April 25, 2017 (GMT -0500)
Angelina County

Weather History for KLFK - March, 2013

Change the Weather History Date:

Tuesday, March 12, 2013

  Actual Average Record
Temperature  
Mean Temperature 52 °F 59 °F  
Max Temperature 71 °F 70 °F 88 °F (1955)
Min Temperature 33 °F 47 °F 19 °F (1948)
Degree Days  
Heating Degree Days 13 7  
Month to date heating degree days 135 104  
Since 1 July heating degree days 1401 1738  
Cooling Degree Days 0 1  
Month to date cooling degree days 2 12  
Year to date cooling degree days 24 31  
Growing Degree Days 2 (Base 50)    
Moisture  
Dew Point 31 °F    
Average Humidity 56    
Maximum Humidity 89    
Minimum Humidity 22    
Precipitation  
Precipitation 0.00 in 0.12 in 2.33 in (1913)
Month to date precipitation 1.30 1.54  
Year to date precipitation 8.11 9.59  
Snow  
Snow 0.00 in - - ()
Month to date snowfall 0.0  
Since 1 July snowfall 0.0  
Snow Depth 0.00 in    
Sea Level Pressure  
Sea Level Pressure 30.17 in    
Wind  
Wind Speed 2 mph (East)    
Max Wind Speed 10 mph    
Max Gust Speed 13 mph    
Visibility 10 miles    
Events      
T = Trace of Precipitation, MM = Missing Value Source: NWS Daily Summary

Daily Weather History Graph

Daily Weather History Graph

Search for Another Location

Airport or City:

Trip Planner

Search our weather history database for the weather conditions in past years. The results will help you decide how hot, cold, wet, or windy it might be!

Date:

Astronomy

Mar. 12, 2013 Rise Set
Actual Time 7:32 AM CDT 7:25 PM CDT
Civil Twilight 7:08 AM CDT 7:49 PM CDT
Nautical Twilight 6:40 AM CDT 8:17 PM CDT
Astronomical Twilight 6:11 AM CDT 8:45 PM CDT
Moon 7:45 AM CDT (3/12) 8:33 PM CDT (3/12)
Length of Visible Light 12h 41m
Length of Day
11h 52m
New Moon, 1% of the Moon is Illuminated
Mar 12
New Moon
Mar 19
First Quarter
Mar 27
Full
Apr 2
Last Quarter
Apr 10
New

Hourly Weather History & Observations

Time (CDT) Temp. Dew Point Humidity Pressure Visibility Wind Dir Wind Speed Gust Speed Precip Events Conditions
12:53 AM 37.9 °F 33.1 °F 83% 30.10 in 10.0 mi Calm Calm - N/A   Clear
1:53 AM 37.0 °F 32.0 °F 82% 30.11 in 10.0 mi Calm Calm - N/A   Clear
2:53 AM 37.0 °F 32.0 °F 82% 30.10 in 10.0 mi Calm Calm - N/A   Clear
3:53 AM 36.0 °F 30.9 °F 82% 30.08 in 10.0 mi Calm Calm - N/A   Clear
4:53 AM 34.0 °F 30.0 °F 85% 30.08 in 10.0 mi Calm Calm - N/A   Clear
5:53 AM 34.0 °F 30.0 °F 85% 30.09 in 10.0 mi Calm Calm - N/A   Clear
6:53 AM 33.1 °F 28.9 °F 85% 30.12 in 10.0 mi Calm Calm - N/A   Clear
7:53 AM 34.0 °F 30.0 °F 85% 30.15 in 10.0 mi Calm Calm - N/A   Clear
8:53 AM 41.0 °F 34.0 °F 76% 30.18 in 10.0 mi Calm Calm - N/A   Clear
9:53 AM 52.0 °F 36.0 °F 54% 30.21 in 10.0 mi Calm Calm - N/A   Clear
10:53 AM 57.0 °F 26.1 °F 30% 30.22 in 10.0 mi East 8.1 mph - N/A   Clear
11:53 AM 60.1 °F 26.1 °F 27% 30.23 in 10.0 mi East 6.9 mph - N/A   Clear
12:53 PM 63.0 °F 25.0 °F 24% 30.22 in 10.0 mi Calm Calm - N/A   Clear
1:53 PM 64.9 °F 27.0 °F 24% 30.20 in 10.0 mi Variable 4.6 mph - N/A   Clear
2:53 PM 66.9 °F 27.0 °F 22% 30.17 in 10.0 mi Variable 6.9 mph - N/A   Clear
3:53 PM 70.0 °F 28.0 °F 21% 30.15 in 10.0 mi Calm Calm - N/A   Clear
4:53 PM 70.0 °F 28.9 °F 22% 30.14 in 10.0 mi Variable 5.8 mph - N/A   Clear
5:53 PM 69.1 °F 28.0 °F 22% 30.14 in 10.0 mi South 4.6 mph - N/A   Clear
6:53 PM 66.9 °F 30.9 °F 26% 30.17 in 10.0 mi SE 3.5 mph - N/A   Clear
7:53 PM 59.0 °F 37.0 °F 44% 30.19 in 10.0 mi Calm Calm - N/A   Clear
8:53 PM 51.1 °F 42.1 °F 71% 30.22 in 9.0 mi ENE 3.5 mph - N/A   Clear
9:53 PM 52.0 °F 37.9 °F 59% 30.23 in 10.0 mi Calm Calm - N/A   Clear
10:53 PM 50.0 °F 36.0 °F 59% 30.25 in 10.0 mi NE 4.6 mph - N/A   Clear
11:53 PM 48.0 °F 37.9 °F 68% 30.27 in 10.0 mi Calm Calm - N/A   Clear